Airfield :
LOGIN :

Register | Disclaimer

   EN    FR    IT 

 










Legend :    VFR   Marginal VFR   IFR   Intensive IFR   Very Intensive IFR
Visi :
Ceiling :
>= 8 km
>= 3000ft
5 to 8 km
1000 to 3000 ft
1500m to 5 km
500 to 1000 ft
800 to 1500m
200 to 500 ft
< 800m
< 200 ft
Symbols :   Thunderstorms  Fog  Heavy snow  Heavy precipitations  Wind > 20 kt
SIGMETs :     Misc.  Thunderstorms  Icing  Turbulence  Mountain Waves  Volcanic Ashes







- Airport Elevation : 143 ft
- IATA code : VDP


EKVD - Kolding Vamdrup

CURRENT METAR :
  • 220650Z 28006KT 9999 FEW036 07/05 Q1026

EXPIRED METARs :
  • 220550Z 26005KT CAVOK 07/05 Q1025
  • 220520Z AUTO 29005KT //// ///////// 07/05 Q1025

TAF TAF EKVD
Valid from the 22 at 07:00 until the 22 at 15:00 UTC


220654Z 2207/2215 30010KT 9999 SCT040
TEMPO 2209/2215 31015G25KT
No reported NOTAMs for that airfield.



MET'MAP, your aeronautical weather chart ! - Copyright ORBIFLY December 2007 - Disclaimer

ORBIFLY MET'MAP TEAM :

Programming & Development : Alexandra Zaïnal
Concept & Development : Baudouin d'Aumeries
Co-Development & Prog : Marc-Olivier Méhu
Technical & hardware support : Manuel Goepfert

Contact : metmap@orbifly.com




SOURCES & CREDITS :

   NOAA